Weather in Kamensk

Russia / Republic of Buryatia     51°59′00″N   106°35′02″E
temp.,
°C
wind,
m/s
gust,
m/s
humid.,
%
clouds,
%
prec.,
mm/h
press.,
hPa
HPBL,
m
13 may, thu
thu1323:00+5wsw386980 0.0 1013231
02:00+2sw349010 0.0 101399
05:00+1sw229465 0.0 101435
08:00+5wnw23685 0.0 1014565
11:00+8nw473984 0.1 10142346
14:00+9wnw483274 0.1 10132742
17:00+9nw463161 0.0 10132331
20:00+5w225123 0.0 101521
14 may, fri
fri1423:00+1sw35625 0.0 101893
02:000sw34695 0.0 101980
05:00−1sw35745 0.0 1019103
08:00+5wsw45545 0.0 1019518
11:00+9w45414 0.0 10171269
14:00+12w44330 0.0 10161538
17:00+13wnw22280 0.0 10141281
20:00+9ese22430 0.0 101410
15 may, sat
sat1523:00+4sse32480 0.0 101529
02:00+4sse33465 0.0 101436
05:00+2sse21535 0.0 101322
08:00+8w474022 0.0 1015497
11:00+8wsw81164100 0.0 10181163
14:00+6w576886 0.3 10201068
17:00+9wsw57535 0.0 1017825
20:00+6wsw47604 0.0 1017257
16 may, sun
sun1623:00+4sw377063 0.0 1018145
02:00+5sw3669100 0.1 1019219
05:00+6sw4106695 0.0 1017371
08:00+12ssw475622 0.0 1013662
11:00+17w61136100 0.0 10111348
14:00+11wsw41174100 0.4 1014750
17:00+12w257079 0.2 1013576
20:00+11w1176100 0.2 101212
17 may, mon
mon1723:00+9ssw238346 0.0 101243
02:00+8s228831 0.0 101025
05:00+8ssw228999 0.0 100916
08:00+10ssw2382100 0.1 100995
11:00+12nnw2373100 0.1 1009537
14:00+8w51094100 6.9 1014638
17:00+9wsw611725 1.1 1014643
20:00+7sw59685 1.1 1015310